Location: Sternwarte_Laufen
(47.9344°N, 12.9346°E)
Time: 16:06:59
(UTC+02:00)

ISS - Pass Details

Date: 23 May 2018
Orbit: 402 x 407 km, 51.6° (Epoch: 23 May)

Event Time Altitude Azimuth Distance (km) Brightness Sun altitude
Rises 02:12:38 0° 292° (WNW) 2,321 0.1 -19.9°
Reaches altitude 10° 02:14:43 10° 295° (WNW) 1,460 -0.9 -19.8°
Maximum altitude 02:17:59 69° 19° (NNE) 434 -3.6 -19.6°
Drops below altitude 10° 02:21:14 10° 104° (ESE) 1,455 -1.0 -19.4°
Sets 02:23:19 0° 107° (ESE) 2,312 0.1 -19.3°
